Weather History for Abingdon, VA

Change the Weather History Date:

Tuesday, November 27, 2012

  Actual Average (KTRI) Record (KTRI)
Temperature  
Mean Temperature 42 °F 43 °F  
Max Temperature 44 °F 54 °F 77 °F (1990)
Min Temperature 38 °F 32 °F 15 °F (1977)
Degree Days  
Heating Degree Days 24 22  
Month to date heating degree days 482  
Since 1 July heating degree days 817  
Cooling Degree Days 0 0  
Month to date cooling degree days 0  
Year to date cooling degree days 980  
Moisture  
Dew Point 41 °F    
Average Humidity 95    
Maximum Humidity 100    
Minimum Humidity 74    
Precipitation  
Precipitation 0.10 in 0.11 in 1.38 in (1959)
Month to date precipitation 2.74  
Year to date precipitation 37.28  
Snow  
Snow 0.00 in 0.00 in - ()
Month to date snowfall 0.1  
Since 1 July snowfall 0.2  
Since 1 September snowfall 0.2  
Snow Depth -    
Sea Level Pressure  
Sea Level Pressure 30.17 in    
Wind  
Wind Speed 1 mph (North)    
Max Wind Speed 9 mph    
Max Gust Speed -    
Visibility 9 miles    
Events Rain    
T = Trace of Precipitation, MM = Missing Value Source: NWS Daily Summary

Daily Weather History Graph

Daily Weather History Graph

Search for Another Location

Airport:

Trip Planner

Search our weather history database for the weather conditions in past years. The results will help you decide how hot, cold, wet, or windy it might be!

Date:

Astronomy

Nov. 27, 2012 Rise Set
Actual Time 7:18 AM EST 5:13 PM EST
Civil Twilight 6:50 AM EST 5:41 PM EST
Nautical Twilight 6:18 AM EST 6:13 PM EST
Astronomical Twilight 5:47 AM EST 6:44 PM EST
Moon 4:43 PM EST (11/27) 6:23 AM EST (11/27)
Length of Visible Light 10h 50m
Length of Day
9h 54m
Waxing Gibbous, 99% of the Moon is Illuminated
Nov 27
Waxing Gibbous
Nov 28
Full
Dec 6
Last Quarter
Dec 13
New
Dec 20
First Quarter

Hourly Weather History & Observations

Time (EST) Temp. Windchill Dew Point Humidity Pressure Visibility Wind Dir Wind Speed Gust Speed Precip Events Conditions
12:15 AM 45.0 °F - 37.2 °F 74% 30.16 in 10.0 mi Calm Calm - N/A Rain Light Rain
12:35 AM 44.2 °F - 40.1 °F 85% 30.16 in 10.0 mi Calm Calm - N/A Rain Light Rain
12:55 AM 43.7 °F - 39.6 °F 85% 30.15 in 10.0 mi Calm Calm - 0.01 in Rain Rain
1:15 AM 42.8 °F - 40.8 °F 93% 30.15 in 10.0 mi Calm Calm - 0.01 in Rain Light Rain
1:35 AM 42.8 °F - 41.4 °F 95% 30.15 in 10.0 mi Calm Calm - 0.02 in Rain Light Rain
1:55 AM 42.3 °F - 40.8 °F 95% 30.13 in 10.0 mi Calm Calm - 0.02 in   Light Drizzle
2:15 AM 42.4 °F - 41.2 °F 95% 30.14 in 7.0 mi Calm Calm - N/A Rain Rain
2:55 AM 42.8 °F - 42.1 °F 97% 30.13 in 7.0 mi Calm Calm - 0.02 in Rain Light Rain
3:15 AM 42.8 °F - 42.8 °F 100% 30.12 in 7.0 mi Calm Calm - N/A Rain Light Rain
3:35 AM 42.4 °F - 42.3 °F 99% 30.13 in 10.0 mi Calm Calm - N/A   Overcast
3:55 AM 42.8 °F - 41.9 °F 97% 30.13 in 10.0 mi Calm Calm - N/A Rain Rain
4:15 AM 43.0 °F - 41.9 °F 96% 30.12 in 10.0 mi Calm Calm - N/A   Overcast
4:35 AM 43.0 °F - 42.4 °F 98% 30.11 in 10.0 mi Calm Calm - N/A   Overcast
4:55 AM 42.8 °F 41.1 °F 42.6 °F 99% 30.11 in 10.0 mi ESE 3.5 mph - N/A   Overcast
5:15 AM 43.0 °F 41.3 °F 42.8 °F 99% 30.11 in 10.0 mi East 3.5 mph - N/A   Overcast
5:35 AM 43.0 °F - 42.3 °F 97% 30.12 in 10.0 mi Calm Calm - N/A   Overcast
5:55 AM 43.0 °F - 42.8 °F 99% 30.12 in 10.0 mi Calm Calm - N/A   Overcast
6:15 AM 43.2 °F - 42.4 °F 97% 30.11 in 10.0 mi Calm Calm - N/A   Light Drizzle
6:35 AM 43.0 °F - 42.4 °F 98% 30.11 in 10.0 mi Calm Calm - N/A Rain Light Rain
6:55 AM 43.0 °F - 42.8 °F 99% 30.12 in 10.0 mi Calm Calm - N/A   Overcast
7:15 AM 43.2 °F - 42.6 °F 98% 30.11 in 10.0 mi Calm Calm - N/A   Overcast
7:35 AM 43.0 °F - 42.8 °F 99% 30.12 in 7.0 mi Calm Calm - N/A Rain Light Rain
7:55 AM 43.0 °F - 42.8 °F 99% 30.12 in 5.0 mi Calm Calm - 0.02 in Rain Light Rain
8:15 AM 43.2 °F - 43.0 °F 99% 30.14 in 4.0 mi Calm Calm - 0.01 in Rain Rain
8:35 AM 43.0 °F - 42.8 °F 99% 30.15 in 5.0 mi Calm Calm - 0.01 in Rain Light Rain
8:55 AM 43.2 °F - 43.2 °F 100% 30.15 in 4.0 mi Calm Calm - 0.02 in   Light Drizzle
9:15 AM 43.5 °F - 43.5 °F 100% 30.15 in 7.0 mi Calm Calm - N/A   Overcast
9:35 AM 43.9 °F - 43.9 °F 100% 30.16 in 5.0 mi Calm Calm - N/A   Overcast
9:55 AM 43.9 °F - 43.7 °F 99% 30.16 in 3.0 mi Calm Calm - N/A   Overcast
10:15 AM 44.2 °F - 44.2 °F 100% 30.17 in 1.2 mi Calm Calm - N/A   Overcast
10:35 AM 44.6 °F - 44.6 °F 100% 30.17 in 1.0 mi Calm Calm - N/A   Overcast
10:55 AM 44.6 °F 40.7 °F 44.6 °F 100% 30.17 in 1.8 mi NNW 6.9 mph - 0.01 in   Overcast
11:15 AM 44.6 °F 40.7 °F 44.6 °F 100% 30.18 in 2.5 mi North 6.9 mph - N/A   Overcast
11:35 AM 43.9 °F 38.8 °F 43.9 °F 100% 30.18 in 7.0 mi NNW 9.2 mph - N/A   Overcast
11:55 AM 43.7 °F 40.3 °F 43.5 °F 99% 30.18 in 10.0 mi North 5.8 mph - N/A   Overcast
12:15 PM 43.7 °F 42.1 °F 43.0 °F 97% 30.17 in 10.0 mi North 3.5 mph - N/A   Overcast
12:35 PM 43.3 °F - 42.4 °F 97% 30.17 in 10.0 mi Calm Calm - N/A   Overcast
12:55 PM 43.7 °F 41.1 °F 42.8 °F 97% 30.17 in 10.0 mi North 4.6 mph - N/A   Overcast
1:15 PM 43.7 °F 39.1 °F 41.9 °F 93% 30.16 in 10.0 mi North 8.1 mph - N/A   Overcast
1:35 PM 43.2 °F 40.5 °F 41.9 °F 95% 30.16 in 10.0 mi North 4.6 mph - N/A   Overcast
1:55 PM 43.2 °F 41.5 °F 41.4 °F 93% 30.16 in 10.0 mi North 3.5 mph - N/A   Overcast
2:15 PM 43.3 °F - 41.7 °F 94% 30.16 in 10.0 mi Calm Calm - N/A   Overcast
2:35 PM 43.7 °F - 41.9 °F 93% 30.16 in 10.0 mi Calm Calm - N/A   Overcast
2:55 PM 43.9 °F - 42.6 °F 95% 30.16 in 10.0 mi Calm Calm - N/A   Overcast
3:15 PM 43.3 °F 40.7 °F 41.2 °F 92% 30.16 in 10.0 mi North 4.6 mph - N/A   Overcast
3:35 PM 42.8 °F 41.1 °F 41.0 °F 93% 30.16 in 10.0 mi North 3.5 mph - N/A   Overcast
3:55 PM 42.8 °F 40.1 °F 41.2 °F 94% 30.16 in 10.0 mi North 4.6 mph - N/A   Overcast
4:15 PM 42.3 °F 39.4 °F 41.0 °F 95% 30.17 in 10.0 mi North 4.6 mph - N/A   Overcast
4:35 PM 42.1 °F 40.2 °F 40.6 °F 95% 30.17 in 10.0 mi North 3.5 mph - N/A   Overcast
4:55 PM 41.9 °F 38.2 °F 40.6 °F 95% 30.18 in 10.0 mi North 5.8 mph - N/A   Overcast
5:15 PM 41.5 °F 39.6 °F 40.5 °F 96% 30.18 in 10.0 mi NNW 3.5 mph - N/A   Overcast
5:35 PM 41.2 °F - 40.1 °F 96% 30.19 in 10.0 mi Calm Calm - N/A   Overcast
6:15 PM 41.4 °F - 39.7 °F 94% 30.20 in 10.0 mi Calm Calm - N/A   Overcast
6:35 PM 41.4 °F - 38.8 °F 91% 30.20 in 10.0 mi Calm Calm - N/A   Overcast
6:55 PM 41.2 °F - 38.5 °F 90% 30.21 in 10.0 mi Calm Calm - N/A   Overcast
7:15 PM 41.2 °F - 39.0 °F 92% 30.21 in 10.0 mi Calm Calm - N/A   Overcast
7:55 PM 41.0 °F - 38.7 °F 91% 30.22 in 10.0 mi Calm Calm - N/A   Overcast
8:15 PM 40.5 °F 38.4 °F 38.3 °F 92% 30.22 in 10.0 mi North 3.5 mph - N/A   Overcast
8:35 PM 40.3 °F 38.2 °F 38.7 °F 94% 30.23 in 10.0 mi NNW 3.5 mph - N/A   Overcast
9:15 PM 39.7 °F - 38.5 °F 95% 30.23 in 10.0 mi Calm Calm - N/A   Overcast
9:35 PM 39.6 °F 37.4 °F 38.3 °F 95% 30.23 in 10.0 mi NW 3.5 mph - N/A   Overcast
9:55 PM 39.2 °F - 37.9 °F 95% 30.23 in 10.0 mi Calm Calm - N/A   Overcast
10:15 PM 39.2 °F 37.0 °F 37.8 °F 95% 30.24 in 10.0 mi NW 3.5 mph - N/A   Overcast
10:35 PM 39.2 °F 35.9 °F 37.6 °F 94% 30.24 in 10.0 mi NNW 4.6 mph - N/A   Overcast
10:55 PM 38.8 °F - 37.4 °F 95% 30.24 in 10.0 mi Calm Calm - N/A   Overcast
11:15 PM 38.7 °F 35.2 °F 36.5 °F 92% 30.24 in 10.0 mi NNW 4.6 mph - N/A   Overcast
11:35 PM 38.5 °F 35.0 °F 36.0 °F 91% 30.25 in 10.0 mi NNW 4.6 mph - N/A   Overcast
11:55 PM 38.3 °F 35.9 °F 35.6 °F 90% 30.25 in 10.0 mi North 3.5 mph - N/A   Overcast